SCP
0 0 0 0 0 0 0 0 0 0 0 0 0 0 0 0 0 0 0 0 0 0 0 0 0 0 0 0 0 0 0 0 0 0 0 0 0 0 0 0 0 0 0 0 0 0 0 0 0
0 0 0 0 0 0 0 0 0 0 0 0 0 0 0 0 0 0 0 0 0 0 0 0 0 0 0 0 0 0 0 0 0 0 0 0 0 0 0 0 0 0 0 0 0 0 0 0 0
0 0 0 0 0 0 0 0 0 0 0 0 0 0 0 0 0 0 0 0 0 0 0 0 0 0 0 0 0 0 0 0 0 0 0 0 0 0 0 0 0 0 0 0 0 0 0 0 0
0 0 0 0 0 0 0 0 0 0 0 0 0 0 0 0 0 0 0 0 0 0 0 0 0 0 0 0 0 0 0 0 0 0 0 0 0 0 0 0 0 0 0 0 0 0 0 0 0
0 0 0 0 0 0 0 0 0 0 0 0 0 0 0 0 0 0 0 0 0 0 0 0 0 0 0 0 0 0 0 0 0 0 0 0 0 0 0 0 0 0 0 0 0 0 0 0 0
0 0 0 0 0 0 0 0 0 0 0 0 0 0 0 0 0 0 0 0 0 0 0 0 0 0 0 0 0 0 0 0 0 0 0 0 0 0 0 0 0 0 0 0 0 0 0 0 0
0 0 0 0 0 0 0 0 0 0 0 0 0 0 0 0 0 0 0 0 0 0 0 0 0 0 0 0 0 0 0 0 0 0 0 0 0 0 0 0 0 0 0 0 0 0 0 0 0
0 0 0 0 0 0 0 0 0 0 0 0 0 0 0 0 0 0 0 0 0 0 0 0 0 0 0 0 0 0 0 0 0 0 0 0 0 0 0 0 0 0 0 0 0 0 0 0 0
0 0 0 0 0 0 0 0 0 0 0 0 0 0 0 0 0 0 0 0 0 0 0 0 0 0 0 0 0 0 0 0 0 0 0 0 0 0 0 0 0 0 0 0 0 0 0 0 0
0 0 0 0 0 0 0 0 0 0 0 0 0 0 0 0 0 0 0 0 0 0 0 0 0 0 0 0 0 0 0 0 0 0 0 0 0 0 0 0 0 0 0 0 0 0 0 0 0
0 0 0 0 0 0 0 0 0 0 0 0 0 0 0 0 0 0 0 0 0 0 0 0 0 0 0 0 0 0 0 0 0 0 0 0 0 0 0 0 0 0 0 0 0 0 0 0 0
0 0 0 0 0 0 0 0 0 0 0 0 0 0 0 0 0 0 0 0 0 0 0 0 0 0 0 0 0 0 0 0 0 0 0 0 0 0 0 0 0 0 0 0 0 0 0 0 0
0 0 0 0 0 0 0 0 0 0 0 0 0 0 0 0 0 0 0 0 0 0 0 0 0 0 0 0 0 0 0 0 0 0 0 0 0 0 0 0 0 0 0 0 0 0 0 0 0
0 0 0 0 0 0 0 0 0 0 0 0 0 0 0 0 0 0 0 0 0 0 0 0 0 0 0 0 0 0 0 0 0 0 0 0 0 0 0 0 0 0 0 0 0 0 0 0 0
0 0 0 0 0 0 0 0 0 0 0 0 0 0 0 0 0 0 0 0 0 0 0 0 0 0 0 0 0 0 0 0 0 0 0 0 0 0 0 0 0 0 0 0 0 0 0 0 0
0 0 0 0 0 0 0 0 0 0 0 0 0 0 0 0 0 0 0 0 0 0 0 0 0 0 0 0 0 0 0 0 0 0 0 0 0 0 0 0 0 0 0 0 0 0 0 0 0
0 0 0 0 0 0 0 0 0 0 0 0 0 0 0 0 0 0 0 0 0 0 0 0 0 0 0 0 0 0 0 0 0 0 0 0 0 0 0 0 0 0 0 0 0 0 0 0 0
0 0 0 0 0 0 0 0 0 0 0 0 0 0 0 0 0 0 0 0 0 1 1 1 0 0 0 0 0 0 0 0 0 0 0 0 0 0 0 0 0 0 0 0 0 0 0 0 0
0 0 0 0 0 0 0 0 0 0 0 0 0 0 0 0 0 0 0 0 1 1 1 1 1 1 1 0 0 0 0 0 0 0 0 0 0 0 0 0 0 0 0 0 0 0 0 0 0
0 0 0 0 0 0 0 0 0 0 0 0 0 0 0 0 0 0 0 0 1 1 1 1 1 1 1 1 0 0 0 0 0 0 0 0 0 0 0 0 0 0 0 0 0 0 0 0 0
0 0 0 0 0 0 0 0 0 0 0 0 0 0 0 0 0 0 1 1 1 1 1 1 1 1 1 1 0 0 0 0 0 0 0 0 0 0 0 0 0 0 0 0 0 0 0 0 0
0 0 0 0 0 0 0 0 0 0 0 0 0 0 0 0 0 0 1 1 1 1 1 1 1 1 1 1 0 0 0 0 0 0 0 0 0 0 0 0 0 0 0 0 0 0 0 0 0
0 0 0 0 0 0 0 0 0 0 0 0 0 0 0 0 0 0 1 1 1 1 1 1 1 1 1 1 1 1 0 0 0 0 0 0 0 0 0 0 0 0 0 0 0 0 0 0 0
0 0 0 0 0 0 0 0 0 0 0 0 0 0 0 0 0 0 0 1 1 1 1 1 1 1 1 1 1 1 0 0 0 0 0 0 0 0 0 0 0 0 0 0 0 0 0 0 0
0 0 0 0 0 0 0 0 0 0 0 0 0 0 0 0 0 0 0 1 1 1 1 1 1 1 1 1 0 0 0 0 0 0 0 0 0 0 0 0 0 0 0 0 0 0 0 0 0
0 0 0 0 0 0 0 0 0 0 0 0 0 0 0 0 0 0 1 1 1 1 1 1 1 1 1 1 0 0 0 0 0 0 0 0 0 0 0 0 0 0 0 0 0 0 0 0 0
0 0 0 0 0 0 0 0 0 0 0 0 0 0 0 0 0 1 1 1 1 1 1 1 1 1 1 1 1 1 0 0 0 0 0 0 0 0 0 0 0 0 0 0 0 0 0 0 0
0 0 0 0 0 0 0 0 0 0 0 0 0 0 0 0 0 1 1 1 1 1 1 1 1 1 1 1 1 1 1 1 0 0 0 0 0 1 1 1 0 0 0 0 0 0 0 0 0
0 0 0 0 0 0 0 0 0 0 0 0 0 0 0 0 0 0 1 1 1 1 1 1 1 1 1 1 1 1 1 1 1 0 0 1 1 1 1 1 0 0 0 0 0 0 0 0 0
0 0 0 0 0 0 0 0 0 0 0 0 0 0 0 0 0 0 1 1 1 1 1 1 1 1 1 1 1 1 1 1 1 1 1 1 1 1 1 1 0 0 0 0 0 0 0 0 0
Wind_Speed
9 8 7 6 7 2 8 8 6 5 5 6 5 3 4 7 7 8 7 7 8 10 12 13 9 9 9 9 9 9 9 9 9 10 10 10 10 10 9 10 10 10 10 10 10 10 10 10 10
6 6 7 7 4 4 8 7 7 7 6 4 4 3 4 7 7 7 7 8 9 10 11 11 11 9 9 9 9 9 8 9 9 9 10 10 10 9 9 9 10 10 10 10 10 10 9 9 10
6 7 7 4 2 5 8 6 7 7 5 2 4 4 5 6 6 6 8 9 9 9 10 12 10 9 9 9 9 9 8 8 8 9 9 9 9 9 9 9 9 9 9 9 10 9 9 9 9
6 7 7 3 5 7 5 6 4 5 4 3 3 6 6 6 4 8 10 9 9 9 10 12 9 9 9 8 9 8 8 7 8 8 8 8 8 8 8 8 9 9 9 9 8 8 9 8 8
7 7 6 3 5 5 4 4 3 3 4 4 3 6 8 7 7 10 10 9 9 9 9 12 10 9 8 8 8 8 8 7 7 8 7 7 7 7 7 7 8 8 8 8 8 8 8 7 6
6 6 5 4 6 5 4 3 2 2 4 5 4 6 7 7 8 9 9 8 8 9 9 11 11 9 8 8 7 7 7 7 7 7 7 6 7 7 7 7 7 7 7 7 7 7 7 6 5
6 5 2 3 5 5 4 2 1 1 3 4 3 4 8 8 8 8 9 8 8 8 8 9 11 11 9 7 7 7 7 6 6 6 6 6 6 7 6 6 6 6 5 5 6 6 6 6 6
6 5 5 4 3 4 4 2 1 0 3 4 1 2 6 9 9 9 8 8 8 7 8 8 8 9 9 10 8 7 7 6 6 6 5 6 7 7 6 6 6 5 5 5 5 5 6 5 5
7 7 4 3 2 3 4 3 2 2 3 4 1 3 7 13 11 10 9 8 8 7 7 7 8 8 7 7 9 8 8 7 7 7 6 5 5 5 6 5 5 5 5 5 5 5 5 5 6
7 6 1 1 1 1 2 2 3 4 5 5 5 6 10 12 11 11 10 9 9 9 8 7 7 7 6 5 6 5 6 6 5 4 5 4 3 2 3 7 5 5 5 5 5 5 6 6 4
5 5 1 1 1 1 3 3 3 4 3 2 4 9 12 12 11 10 9 8 8 9 8 7 7 6 6 4 4 3 3 4 5 5 4 3 2 3 3 3 5 5 6 4 5 6 3 2 2
5 3 3 2 1 3 3 3 4 4 2 2 3 9 13 13 11 9 9 8 7 8 8 7 7 6 5 4 3 4 3 3 3 4 4 3 2 2 2 1 2 2 2 2 1 1 2 1 2
8 4 3 3 4 4 4 4 3 2 1 1 5 10 12 12 10 9 7 7 7 7 7 7 7 6 5 4 3 4 3 3 3 3 3 3 3 2 2 2 1 1 1 2 2 1 2 1 2
4 4 4 5 5 5 5 4 4 1 1 4 7 9 10 10 9 8 7 7 7 7 7 7 7 6 5 4 3 2 3 3 3 3 3 3 2 2 2 2 2 1 1 1 1 1 1 1 1
5 7 7 6 5 5 6 7 4 2 3 5 7 8 8 8 8 8 7 7 7 7 7 7 6 6 5 5 4 3 3 3 2 2 3 3 2 2 2 2 2 2 1 2 1 1 2 2 2
9 10 9 6 5 5 9 7 4 3 4 5 6 7 7 7 8 7 7 6 6 7 7 7 6 6 5 4 3 3 3 3 2 2 2 3 3 3 3 2 2 2 2 2 2 2 2 2 2
11 10 8 6 5 5 8 5 3 3 4 5 5 6 7 7 7 7 7 7 6 6 7 7 6 6 6 5 4 3 3 2 2 2 2 2 3 3 3 2 1 2 2 3 3 2 2 2 2
8 9 8 7 5 6 8 5 3 4 5 5 5 6 7 7 6 6 6 7 6 6 7 7 6 6 5 4 4 3 3 3 3 2 2 2 3 3 3 3 2 3 2 2 2 2 2 2 2
7 9 8 5 3 6 7 6 4 4 5 6 6 6 6 6 7 6 6 7 7 7 7 7 6 6 5 4 4 4 4 3 2 2 2 2 2 3 3 2 3 3 2 2 2 2 3 2 2
9 10 8 6 4 5 6 7 5 5 7 6 6 6 6 7 7 7 7 7 7 7 7 6 6 6 5 4 3 2 2 2 2 1 1 2 2 3 3 2 3 2 2 2 2 2 2 2 2
11 11 9 6 5 7 8 10 9 7 6 6 6 6 7 7 8 8 7 7 7 7 6 5 5 5 5 4 4 3 3 3 3 2 2 2 2 2 2 3 2 2 3 2 2 3 3 2 2
10 9 9 8 10 8 10 9 8 8 8 7 7 7 7 7 8 8 8 7 7 6 6 6 5 5 5 5 4 5 4 3 2 2 2 2 2 2 2 2 2 2 2 2 3 2 3 3 3
8 6 9 10 11 10 10 11 6 8 9 8 7 7 7 7 8 8 8 8 7 7 6 6 6 5 4 4 4 4 3 2 2 3 3 3 2 2 2 3 2 2 2 2 2 2 3 3 3
7 7 8 10 11 13 11 11 8 7 8 7 6 7 7 7 8 8 7 7 7 7 6 6 6 5 4 4 4 4 4 3 3 3 3 3 2 2 2 3 3 3 2 2 3 3 3 3 3
10 9 8 10 10 9 7 9 6 2 4 5 4 5 6 6 7 8 8 8 7 7 6 6 6 5 5 4 4 3 4 4 4 3 3 3 3 2 2 2 3 3 3 2 2 3 3 3 3
12 13 10 8 9 6 6 9 3 3 3 3 4 4 5 6 6 7 8 7 7 7 7 6 6 5 5 5 4 4 4 3 3 3 3 3 2 2 2 3 3 3 2 3 3 3 3 3 3
11 12 10 11 11 10 7 5 4 5 5 5 5 5 5 5 5 6 7 7 6 7 6 6 6 5 5 5 5 4 4 3 3 3 4 2 2 2 3 3 3 3 2 2 3 2 2 2 3
9 8 8 10 10 11 9 9 5 8 7 6 6 6 5 5 5 5 6 6 6 6 6 6 6 5 5 5 5 4 5 4 4 4 3 2 2 2 3 3 3 3 3 3 3 3 2 3 3
9 10 10 9 10 10 9 4 1 4 5 5 5 5 5 5 5 5 5 5 5 5 6 6 6 5 5 5 4 4 5 5 4 4 3 3 3 3 3 3 3 3 4 3 3 3 3 4 3
8 10 10 10 9 10 10 3 4 2 3 3 3 3 4 4 4 4 5 5 5 5 5 5 5 5 5 5 5 5 5 5 4 4 4 3 3 4 4 4 4 4 4 3 3 3 3 4 4
Wind_Direction
194 199 220 234 231 146 79 76 70 77 73 58 52 33 37 29 18 57 92 120 127 134 132 141 138 139 137 132 129 126 124 123 126 127 128 127 127 125 120 118 115 113 111 109 108 109 111 116 122
199 207 232 240 250 103 85 76 79 67 79 93 88 80 76 69 54 89 117 123 137 134 137 136 134 140 139 133 127 124 124 125 126 129 130 130 129 126 122 120 118 117 115 113 113 114 113 116 119
210 230 257 244 53 64 84 81 84 92 102 107 95 68 50 68 89 101 113 136 142 137 135 125 139 141 138 135 130 124 123 125 129 130 132 131 129 128 127 125 122 120 119 119 118 119 119 118 119
227 225 236 239 98 71 68 86 101 119 115 98 105 99 84 67 86 106 127 143 144 140 137 130 143 142 141 139 134 129 127 126 130 130 130 133 132 129 127 126 127 125 125 127 126 124 122 120 121
240 251 224 162 107 94 87 91 132 122 105 101 106 101 100 89 95 118 136 144 144 141 138 134 142 143 141 138 138 136 132 125 127 129 129 130 133 134 132 130 130 130 131 130 129 124 122 122 126
239 243 226 154 119 112 109 122 156 113 107 112 118 115 101 111 123 133 139 146 142 141 139 135 143 147 144 142 140 137 132 125 122 130 130 130 134 135 135 134 135 133 130 134 134 133 134 135 137
265 253 229 154 132 131 108 140 172 116 119 107 116 119 120 130 130 140 142 143 141 144 142 146 154 156 155 149 144 139 133 129 124 128 133 137 139 136 137 137 136 134 134 134 134 137 144 147 145
281 253 206 185 171 126 124 156 144 230 97 104 162 131 133 140 144 148 147 146 147 151 150 154 157 156 162 158 152 147 143 140 134 129 135 142 148 147 151 152 140 144 144 142 138 142 145 147 150
255 245 210 186 184 133 144 172 137 152 142 146 118 48 104 135 150 155 156 155 154 157 159 163 160 161 164 154 148 158 156 153 159 154 155 181 168 153 157 123 132 145 148 150 147 147 157 164 159
242 244 200 56 318 156 169 199 160 190 179 162 138 111 124 145 159 166 167 166 165 165 166 167 169 165 167 157 151 164 165 157 174 155 162 173 143 147 137 125 137 147 153 161 158 168 184 200 171
234 253 160 185 237 265 214 207 192 224 203 169 168 154 152 159 168 175 174 171 167 165 167 167 170 171 171 163 159 160 159 154 166 160 165 159 166 165 164 153 156 167 180 178 167 191 193 179 162
224 234 257 251 246 245 235 213 209 235 344 26 162 157 161 169 174 177 174 170 166 168 170 167 169 170 176 169 164 168 167 159 161 156 177 166 172 177 164 180 164 169 155 159 173 179 153 166 181
221 216 225 240 235 236 227 221 219 226 344 90 141 157 166 173 175 175 172 169 168 170 169 171 171 168 173 177 188 167 171 165 159 169 167 181 179 180 172 164 184 191 162 179 179 157 130 169 159
220 231 232 225 217 204 216 210 216 201 154 144 152 162 168 171 174 172 174 175 176 174 173 168 175 172 174 178 183 176 178 172 180 174 168 193 184 173 190 182 181 186 184 142 172 150 152 153 113
222 228 218 206 214 206 220 211 211 151 168 164 162 165 168 171 174 175 175 178 178 175 172 170 173 172 178 184 189 184 189 190 187 170 171 186 193 184 202 192 194 179 171 158 170 182 188 182 172
218 226 221 185 209 203 231 223 162 158 178 174 170 170 173 177 181 178 174 175 169 170 165 170 173 168 176 183 189 191 189 191 196 187 178 186 193 194 212 204 191 183 191 192 185 202 199 194 192
213 226 222 182 194 207 233 235 158 177 192 183 177 178 178 179 184 178 176 171 166 165 163 163 168 171 177 179 181 182 183 198 200 196 200 188 195 196 213 209 180 203 203 204 211 177 207 195 202
216 229 223 213 182 216 225 227 183 193 202 190 183 184 184 183 181 175 173 164 156 154 155 158 165 167 172 176 177 180 192 195 200 195 196 200 195 199 218 195 193 214 207 200 197 191 206 215 216
252 246 240 219 190 230 229 232 218 206 205 198 192 189 188 180 168 163 164 158 153 151 153 159 165 161 173 181 189 184 189 195 193 193 190 194 193 198 218 215 184 210 193 197 189 200 197 207 215
239 240 236 217 195 245 238 239 226 213 210 208 203 199 192 176 165 162 164 164 162 159 160 161 163 166 177 175 191 195 196 191 179 186 178 197 191 211 209 220 213 201 189 186 193 214 229 201 220
233 241 240 229 210 223 236 234 219 209 205 206 210 207 196 182 173 167 167 166 162 160 164 161 163 167 172 168 176 171 175 187 180 180 178 195 202 206 235 221 228 216 219 190 207 211 229 231 216
235 236 243 228 231 227 225 250 213 203 202 205 207 202 196 184 176 170 168 165 163 159 156 153 153 158 162 174 182 188 198 196 181 186 170 184 204 212 201 216 224 236 236 209 222 205 234 241 232
244 237 235 236 242 250 228 251 229 198 210 208 206 204 200 187 179 175 173 168 162 158 153 150 147 148 156 177 181 196 200 193 178 182 173 194 189 211 209 200 213 222 229 224 229 210 239 238 249
221 218 225 233 238 240 233 243 243 209 217 210 202 200 198 189 182 179 175 168 161 158 156 152 152 154 161 176 183 196 190 193 190 197 188 196 188 201 210 210 211 216 221 226 229 223 221 244 252
211 221 221 220 223 235 210 235 244 201 212 214 211 200 189 187 185 181 178 173 168 164 163 159 157 162 168 176 183 190 190 190 197 207 201 214 199 195 201 220 216 214 211 216 227 219 232 226 233
217 230 241 247 246 235 200 234 205 170 197 208 204 199 186 187 187 185 181 174 172 170 168 167 166 168 174 177 180 190 199 206 198 213 228 214 220 205 188 208 210 216 215 212 214 221 216 218 228
220 230 251 265 265 258 225 213 192 186 204 202 190 188 192 184 184 183 180 177 175 173 172 176 174 175 181 182 181 187 199 210 199 199 222 216 216 202 188 198 201 203 205 216 223 219 221 223 229
247 235 230 244 252 253 243 234 220 187 200 198 197 194 190 181 178 176 176 178 177 176 174 179 184 184 186 187 192 187 193 197 198 210 208 222 224 219 202 200 205 204 200 209 225 220 204 218 230
209 219 234 245 253 259 258 239 112 192 199 202 200 192 189 189 183 177 175 175 173 176 177 181 184 187 190 189 193 196 194 191 195 204 210 211 217 215 214 209 211 208 202 203 215 228 220 224 230
237 236 231 242 244 249 265 246 104 157 180 196 199 183 186 192 188 176 173 172 174 177 182 183 187 193 195 191 195 200 196 191 195 200 214 215 218 225 223 221 217 216 209 200 207 223 225 230 233